TimeAEST,TemperatureF,Dew PointF,Humidity,Sea Level PressureIn,VisibilityMPH,Wind Direction,Wind SpeedMPH,Gust SpeedMPH,PrecipitationIn,Events,Conditions,WindDirDegrees,DateUTC
12:00 AM,76,71,79,29.88,16,SE,6.9,,,,Partly Cloudy,140,2011-11-27 14:00:00
12:00 AM,77.0,71.6,83,29.86,6.2,SE,6.9,-,N/A,,Partly Cloudy,140,2011-11-27 14:00:00
12:30 AM,77.0,71.6,83,29.86,6.2,ESE,5.8,-,N/A,,Partly Cloudy,120,2011-11-27 14:30:00
1:00 AM,75,71,83,29.86,,SE,5.8,,,,,140,2011-11-27 15:00:00
1:00 AM,75.2,71.6,89,29.83,6.2,SE,5.8,-,N/A,,Partly Cloudy,140,2011-11-27 15:00:00
1:30 AM,75.2,71.6,89,29.83,6.2,SSW,3.5,-,N/A,,Partly Cloudy,200,2011-11-27 15:30:00
2:00 AM,75.2,69.8,83,29.83,6.2,SE,5.8,-,N/A,,Partly Cloudy,140,2011-11-27 16:00:00
2:30 AM,73.4,69.8,88,29.83,6.2,SE,11.5,-,N/A,,Partly Cloudy,130,2011-11-27 16:30:00
3:00 AM,74,70,85,29.83,12,SE,10.4,,,,Partly Cloudy,130,2011-11-27 17:00:00
3:00 AM,73.4,69.8,88,29.83,6.2,SE,10.4,-,N/A,,Partly Cloudy,130,2011-11-27 17:00:00
3:30 AM,73.4,69.8,88,29.83,6.2,SE,10.4,-,N/A,,Partly Cloudy,130,2011-11-27 17:30:00
4:00 AM,74,69,81,29.85,,SE,9.2,,,,,140,2011-11-27 18:00:00
4:00 AM,73.4,69.8,88,29.83,6.2,SE,9.2,-,N/A,,Partly Cloudy,140,2011-11-27 18:00:00
4:30 AM,75.2,69.8,83,29.83,6.2,South,4.6,-,N/A,,Partly Cloudy,170,2011-11-27 18:30:00
5:00 AM,73.4,69.8,88,29.83,6.2,SE,9.2,-,N/A,,Partly Cloudy,130,2011-11-27 19:00:00
5:30 AM,73.4,69.8,88,29.86,6.2,SE,10.4,-,N/A,,Partly Cloudy,130,2011-11-27 19:30:00
6:00 AM,74,69,80,29.86,12,SE,10.4,,,,Partly Cloudy,130,2011-11-27 20:00:00
6:00 AM,73.4,69.8,88,29.86,6.2,SE,10.4,-,N/A,,Partly Cloudy,130,2011-11-27 20:00:00
6:30 AM,75.2,69.8,83,29.86,6.2,SE,10.4,-,N/A,,Partly Cloudy,130,2011-11-27 20:30:00
7:00 AM,80,69,62,29.88,,South,8.1,,,,,180,2011-11-27 21:00:00
7:00 AM,80.6,69.8,70,29.86,6.2,South,8.1,-,N/A,,Partly Cloudy,180,2011-11-27 21:00:00
7:30 AM,78.8,69.8,74,29.86,6.2,SE,11.5,-,N/A,,Partly Cloudy,130,2011-11-27 21:30:00
8:00 AM,80.6,68.0,65,29.89,6.2,South,9.2,-,N/A,,Partly Cloudy,180,2011-11-27 22:00:00
8:30 AM,82.4,69.8,66,29.89,6.2,South,8.1,-,N/A,,Partly Cloudy,180,2011-11-27 22:30:00
9:00 AM,85,72,56,29.89,16,South,6.9,,,,Partly Cloudy,180,2011-11-27 23:00:00
9:00 AM,84.2,71.6,66,29.89,6.2,South,6.9,-,N/A,,Scattered Clouds,180,2011-11-27 23:00:00
9:30 AM,86.0,71.6,62,29.89,6.2,South,10.4,-,N/A,,Scattered Clouds,170,2011-11-27 23:30:00
10:00 AM,85,72,58,29.89,,SSE,11.5,,,,,150,2011-11-28 00:00:00
10:00 AM,86.0,73.4,66,29.89,6.2,SSE,11.5,-,N/A,,Scattered Clouds,150,2011-11-28 00:00:00
10:30 AM,87.8,73.4,62,29.86,6.2,ESE,6.9,-,N/A,,Mostly Cloudy,110,2011-11-28 00:30:00
11:00 AM,87.8,71.6,58,29.86,6.2,SSE,8.1,-,N/A,,Scattered Clouds,150,2011-11-28 01:00:00
11:30 AM,87.8,71.6,58,29.86,6.2,SE,8.1,-,N/A,,Scattered Clouds,140,2011-11-28 01:30:00
12:00 PM,88,72,51,29.85,19,SE,8.1,,,,Partly Cloudy,130,2011-11-28 02:00:00
12:00 PM,87.8,73.4,62,29.83,6.2,SE,8.1,-,N/A,,Scattered Clouds,130,2011-11-28 02:00:00
12:30 PM,87.8,71.6,58,29.83,6.2,East,13.8,-,N/A,,Partly Cloudy,90,2011-11-28 02:30:00
1:00 PM,89,72,48,29.83,,ESE,13.8,,,,,120,2011-11-28 03:00:00
1:00 PM,89.6,71.6,55,29.80,6.2,ESE,13.8,-,N/A,,Partly Cloudy,120,2011-11-28 03:00:00
1:30 PM,89.6,71.6,55,29.80,6.2,ESE,12.7,-,N/A,,Partly Cloudy,110,2011-11-28 03:30:00
2:00 PM,89.6,73.4,59,29.80,6.2,ESE,15.0,-,N/A,,Partly Cloudy,110,2011-11-28 04:00:00
2:30 PM,87.8,71.6,58,29.77,6.2,ESE,16.1,-,N/A,,Partly Cloudy,120,2011-11-28 04:30:00
3:00 PM,88,73,52,29.78,19,East,15.0,,,,Partly Cloudy,100,2011-11-28 05:00:00
3:00 PM,87.8,73.4,62,29.77,6.2,East,15.0,-,N/A,,Partly Cloudy,100,2011-11-28 05:00:00
3:30 PM,86.0,71.6,62,29.77,6.2,ESE,16.1,-,N/A,,Partly Cloudy,110,2011-11-28 05:30:00
4:00 PM,87,71,50,29.79,,ESE,13.8,,,,,110,2011-11-28 06:00:00
4:00 PM,86.0,71.6,62,29.77,6.2,ESE,13.8,-,N/A,,Partly Cloudy,110,2011-11-28 06:00:00
4:30 PM,87.8,71.6,58,29.77,6.2,SE,11.5,-,N/A,,Partly Cloudy,130,2011-11-28 06:30:00
5:00 PM,84.2,71.6,66,29.77,6.2,SE,16.1,-,N/A,,Partly Cloudy,140,2011-11-28 07:00:00
5:30 PM,84.2,69.8,62,29.80,6.2,SE,17.3,-,N/A,,Partly Cloudy,140,2011-11-28 07:30:00
6:00 PM,83,70,57,29.81,,SE,15.0,,,,,140,2011-11-28 08:00:00
6:00 PM,82.4,69.8,66,29.80,6.2,SE,15.0,-,N/A,,Partly Cloudy,140,2011-11-28 08:00:00
6:30 PM,82.4,71.6,70,29.80,6.2,SE,12.7,-,N/A,,Partly Cloudy,130,2011-11-28 08:30:00
7:00 PM,82,72,65,29.84,,SE,12.7,,,,,140,2011-11-28 09:00:00
7:00 PM,82.4,71.6,70,29.83,6.2,SE,12.7,-,N/A,,Scattered Clouds,140,2011-11-28 09:00:00
7:30 PM,80.6,71.6,74,29.83,6.2,SE,8.1,-,N/A,,Scattered Clouds,140,2011-11-28 09:30:00
8:00 PM,80.6,73.4,79,29.83,6.2,South,6.9,-,N/A,,Scattered Clouds,180,2011-11-28 10:00:00
8:30 PM,80.6,71.6,74,29.86,6.2,South,6.9,-,N/A,,Scattered Clouds,190,2011-11-28 10:30:00
9:00 PM,79,73,76,29.87,19,South,3.5,,,,Partly Cloudy,170,2011-11-28 11:00:00
9:00 PM,78.8,73.4,83,29.86,6.2,South,3.5,-,N/A,,Partly Cloudy,170,2011-11-28 11:00:00
9:30 PM,78.8,73.4,83,29.86,6.2,South,6.9,-,N/A,,Partly Cloudy,170,2011-11-28 11:30:00
10:00 PM,79,72,75,29.88,,South,6.9,,,,,180,2011-11-28 12:00:00
10:00 PM,78.8,73.4,83,29.86,6.2,South,6.9,-,N/A,,Partly Cloudy,180,2011-11-28 12:00:00
10:30 PM,78.8,73.4,83,29.86,6.2,South,6.9,-,N/A,,Partly Cloudy,170,2011-11-28 12:30:00
11:00 PM,78.8,73.4,83,29.86,6.2,SSE,8.1,-,N/A,,Partly Cloudy,160,2011-11-28 13:00:00
11:30 PM,78.8,71.6,78,29.86,6.2,South,8.1,-,N/A,,Partly Cloudy,170,2011-11-28 13:30:00